TimeCST,TemperatureF,Dew PointF,Humidity,Sea Level PressureIn,VisibilityMPH,Wind Direction,Wind SpeedMPH,Gust SpeedMPH,PrecipitationIn,Events,Conditions,WindDirDegrees,DateUTC
12:54 AM,28.0,23.0,81,30.29,10.0,North,8.1,-,N/A,,Clear,360,2013-01-17 06:54:00
1:54 AM,27.0,21.9,81,30.33,10.0,NW,8.1,-,N/A,,Clear,320,2013-01-17 07:54:00
3:54 AM,24.1,19.9,84,30.37,10.0,NW,3.5,-,N/A,,Clear,310,2013-01-17 09:54:00
4:54 AM,23.0,19.0,85,30.39,9.0,NNE,3.5,-,N/A,,Clear,30,2013-01-17 10:54:00
5:54 AM,23.0,18.0,81,30.40,10.0,NNE,5.8,-,N/A,,Clear,30,2013-01-17 11:54:00
6:54 AM,21.9,15.1,75,30.41,10.0,Calm,Calm,-,N/A,,Clear,0,2013-01-17 12:54:00
7:14 AM,21.2,17.6,86,30.40,10.0,South,3.5,-,N/A,,Mostly Cloudy,170,2013-01-17 13:14:00
7:54 AM,24.1,15.1,69,30.44,10.0,Calm,Calm,-,N/A,,Overcast,0,2013-01-17 13:54:00
8:05 AM,24.8,15.8,69,30.42,10.0,Calm,Calm,-,N/A,,Overcast,0,2013-01-17 14:05:00
8:54 AM,25.0,14.0,63,30.47,10.0,Calm,Calm,-,N/A,,Overcast,0,2013-01-17 14:54:00
9:54 AM,26.1,17.1,69,30.48,10.0,Calm,Calm,-,N/A,,Overcast,0,2013-01-17 15:54:00
10:54 AM,27.0,21.9,81,30.48,7.0,Calm,Calm,-,N/A,,Overcast,0,2013-01-17 16:54:00
11:54 AM,28.0,25.0,88,30.48,3.0,Calm,Calm,-,N/A,,Overcast,0,2013-01-17 17:54:00
12:39 PM,28.4,26.6,93,30.42,1.8,SSE,4.6,-,N/A,,Overcast,150,2013-01-17 18:39:00
12:54 PM,30.0,28.0,92,30.44,1.5,SSE,4.6,-,N/A,,Overcast,150,2013-01-17 18:54:00
1:13 PM,32.0,28.4,87,30.40,1.5,SSE,8.1,-,N/A,,Overcast,160,2013-01-17 19:13:00
1:40 PM,33.8,30.2,87,30.40,2.0,South,5.8,-,N/A,,Overcast,180,2013-01-17 19:40:00
1:51 PM,33.8,30.2,87,30.40,2.5,SSW,4.6,-,N/A,,Overcast,200,2013-01-17 19:51:00
1:54 PM,33.1,30.0,89,30.43,2.5,SSW,4.6,-,N/A,,Overcast,200,2013-01-17 19:54:00
2:17 PM,33.8,30.2,87,30.39,3.0,SSW,4.6,-,N/A,,Overcast,210,2013-01-17 20:17:00
2:54 PM,34.0,30.0,85,30.41,4.0,South,4.6,-,N/A,,Overcast,190,2013-01-17 20:54:00
3:03 PM,33.8,30.2,87,30.38,5.0,South,6.9,-,N/A,,Overcast,190,2013-01-17 21:03:00
3:44 PM,33.8,30.2,87,30.38,2.5,South,9.2,-,N/A,,Overcast,190,2013-01-17 21:44:00
3:54 PM,34.0,30.0,85,30.41,2.5,South,5.8,-,N/A,,Overcast,190,2013-01-17 21:54:00
4:34 PM,33.8,30.2,87,30.40,1.5,South,5.8,-,N/A,,Overcast,190,2013-01-17 22:34:00
4:54 PM,33.1,30.0,89,30.43,1.5,South,4.6,-,N/A,,Overcast,170,2013-01-17 22:54:00
5:26 PM,32.0,30.2,93,30.40,1.8,South,4.6,-,N/A,,Overcast,180,2013-01-17 23:26:00
5:36 PM,32.0,30.2,93,30.40,2.0,South,5.8,-,N/A,,Overcast,180,2013-01-17 23:36:00
5:54 PM,32.0,30.0,92,30.42,2.0,SW,5.8,-,N/A,,Overcast,220,2013-01-17 23:54:00
6:03 PM,32.0,30.2,93,30.39,1.5,South,3.5,-,N/A,,Overcast,180,2013-01-18 00:03:00
6:18 PM,30.2,30.2,100,30.39,0.2,South,4.6,-,N/A,Fog,Light Freezing Fog,170,2013-01-18 00:18:00
6:54 PM,30.9,28.9,92,30.42,0.2,SSE,5.8,-,N/A,Fog,Light Freezing Fog,160,2013-01-18 00:54:00
7:54 PM,30.0,28.0,92,30.39,0.2,SSE,9.2,-,N/A,Fog,Light Freezing Fog,150,2013-01-18 01:54:00
8:54 PM,30.0,28.9,96,30.36,0.2,South,8.1,-,N/A,Fog,Light Freezing Fog,170,2013-01-18 02:54:00
9:54 PM,28.9,27.0,92,30.35,0.2,SSE,8.1,-,N/A,Fog,Light Freezing Fog,160,2013-01-18 03:54:00
10:54 PM,28.0,27.0,96,30.32,0.2,SSE,6.9,-,N/A,Fog,Light Freezing Fog,160,2013-01-18 04:54:00
11:11 PM,28.4,26.6,93,30.28,2.0,SSE,8.1,-,N/A,,Mostly Cloudy,160,2013-01-18 05:11:00
11:18 PM,28.4,26.6,93,30.28,2.5,SSE,8.1,-,N/A,,Scattered Clouds,160,2013-01-18 05:18:00
11:28 PM,28.4,26.6,93,30.28,3.0,SSE,6.9,-,N/A,,Clear,160,2013-01-18 05:28:00
11:54 PM,27.0,25.0,92,30.30,3.0,South,5.8,-,N/A,,Clear,170,2013-01-18 05:54:00